Total_Precipitation_Accumulation
0.08 0.19 0.49 0.85 1.57 1.76 1.42 0.82 0.61 0.49 0.49 0.52 0.53 0.53 0.61 0.76 1.12 1.68 1.44 0.94 0.50 0.41 0.52 0.76 1.01 0.90 0.91 0.95 0.93 0.93 0.84 0.82 0.82 0.84 0.89 0.94 0.96 0.98 1.02 1.08 1.13 1.30 1.41 1.37 1.33 1.40 1.42 1.44 1.55
0.17 0.32 0.59 1.12 1.77 1.65 1.25 0.70 0.52 0.40 0.42 0.43 0.40 0.47 0.64 0.76 0.66 0.83 1.07 0.86 0.46 0.40 0.37 0.40 0.73 0.86 0.90 0.92 0.89 0.88 0.84 0.83 0.82 0.92 0.92 0.95 1.04 1.12 1.16 1.08 1.08 1.17 1.25 1.27 1.30 1.21 1.35 1.36 1.40
0.23 0.37 0.60 1.11 1.13 1.08 0.90 0.58 0.47 0.35 0.45 0.61 0.53 0.48 0.68 0.89 0.73 0.79 0.86 0.56 0.42 0.38 0.32 0.43 0.66 0.74 0.78 0.87 0.86 0.80 0.84 0.94 0.98 0.97 0.86 0.93 0.97 1.12 1.18 1.14 1.15 1.17 1.24 1.29 1.36 1.25 1.35 1.31 1.38
0.23 0.40 0.61 0.67 0.49 0.44 0.48 0.47 0.46 0.48 0.67 0.81 0.69 0.65 0.75 0.76 0.75 0.77 0.68 0.51 0.43 0.48 0.39 0.48 0.70 0.70 0.73 0.81 0.82 0.82 0.92 1.04 1.03 0.98 0.92 0.96 0.99 1.10 1.07 1.07 1.15 1.14 1.27 1.35 1.43 1.35 1.38 1.38 1.40
0.19 0.43 0.70 0.47 0.28 0.27 0.28 0.33 0.48 0.55 0.79 0.87 0.66 0.83 1.04 0.96 0.78 0.73 0.59 0.55 0.51 0.59 0.61 0.65 0.81 0.77 0.75 0.78 0.87 0.93 0.98 1.05 1.10 1.02 0.93 0.95 0.96 1.04 1.02 1.02 1.06 1.06 1.23 1.33 1.42 1.44 1.44 1.47 1.59
0.19 0.33 0.46 0.33 0.21 0.18 0.21 0.28 0.42 0.55 0.76 0.85 0.73 1.06 1.35 1.32 1.11 0.97 0.88 0.94 0.90 0.95 0.97 0.99 1.02 0.95 0.92 0.90 1.02 1.11 1.03 1.01 1.06 1.01 0.95 0.91 0.96 0.98 0.94 0.96 0.98 0.98 1.13 1.25 1.36 1.49 1.46 1.48 1.60
0.16 0.25 0.29 0.19 0.14 0.15 0.20 0.27 0.44 0.61 0.77 0.99 0.97 1.21 1.46 1.65 1.44 1.24 1.19 1.26 1.33 1.33 1.32 1.17 1.06 1.01 1.05 1.17 1.25 1.16 1.02 1.02 1.06 1.05 0.96 0.92 0.94 0.86 0.80 0.88 0.99 0.98 1.09 1.21 1.36 1.45 1.45 1.43 1.54
0.12 0.13 0.17 0.11 0.07 0.12 0.17 0.26 0.40 0.59 0.85 0.99 1.00 1.15 1.35 1.44 1.37 1.44 1.52 1.62 1.80 1.71 1.55 1.30 1.12 1.11 1.01 1.04 1.15 1.11 1.01 1.07 1.09 1.08 1.05 1.07 1.02 0.93 0.95 0.95 1.10 1.08 1.15 1.18 1.28 1.40 1.43 1.44 1.53
0.07 0.08 0.10 0.08 0.05 0.09 0.17 0.33 0.46 0.51 0.68 1.01 1.23 1.08 0.98 1.12 1.45 1.71 2.09 2.16 2.25 2.10 1.69 1.33 1.23 1.29 1.21 1.09 1.04 1.29 1.23 1.24 1.26 1.33 1.34 1.50 1.71 1.44 1.40 1.16 1.33 1.34 1.41 1.43 1.51 1.60 1.67 1.75 1.68
0.04 0.07 0.07 0.04 0.03 0.05 0.16 0.39 0.55 0.66 1.00 1.35 1.52 1.32 1.11 1.13 1.61 1.98 2.22 2.40 2.08 2.10 2.05 1.71 1.45 1.36 1.39 1.27 1.35 1.82 1.78 1.71 1.87 1.93 1.87 2.23 2.19 1.95 1.41 1.38 1.74 1.75 1.86 1.99 2.22 2.38 2.13 1.93 1.83
0.03 0.03 0.03 0.03 0.03 0.07 0.20 0.23 0.32 0.59 1.22 1.61 1.81 1.45 1.20 1.31 1.70 2.24 2.46 2.37 2.08 2.06 1.97 2.02 1.84 1.66 1.65 1.79 1.72 1.92 2.17 2.19 2.23 2.16 2.22 2.46 2.09 1.78 1.60 1.82 2.21 2.25 2.31 2.42 2.63 2.76 2.22 2.25 2.65
0.02 0.02 0.02 0.02 0.03 0.05 0.12 0.20 0.36 0.67 1.16 1.42 1.31 1.18 1.20 1.41 1.67 2.28 2.69 2.54 2.40 2.32 2.21 2.47 2.39 2.28 2.29 2.13 2.11 1.96 1.95 1.97 2.04 2.15 2.09 2.24 2.28 2.17 2.17 2.29 2.37 2.51 2.71 3.00 2.81 2.94 2.92 3.00 2.86
0.02 0.02 0.02 0.02 0.03 0.05 0.10 0.21 0.34 0.57 0.85 0.91 0.82 0.99 1.45 1.56 1.84 2.46 3.03 3.01 2.92 2.78 2.85 2.99 3.03 3.13 2.95 2.68 2.47 2.05 2.05 1.97 1.91 1.96 1.94 2.14 2.43 2.48 2.62 2.41 2.50 2.28 2.41 2.79 3.09 3.10 3.30 3.47 3.33
0.02 0.03 0.03 0.05 0.07 0.08 0.12 0.24 0.39 0.77 0.78 0.70 0.83 1.15 1.53 1.94 2.09 2.53 3.25 3.50 3.42 3.40 3.62 3.59 3.61 3.64 3.46 3.04 2.77 2.45 2.13 2.17 1.97 1.94 2.00 2.45 2.70 2.69 2.78 2.64 2.61 2.34 2.36 2.69 3.06 3.11 3.43 3.50 3.51
0.04 0.06 0.12 0.13 0.10 0.12 0.18 0.56 0.71 0.84 0.80 0.79 1.01 1.25 1.74 2.34 2.56 2.83 3.33 3.70 3.84 4.09 4.28 4.47 4.36 4.05 4.11 3.74 2.99 2.46 2.18 2.02 2.12 2.24 2.29 2.53 2.68 2.90 3.07 2.98 2.62 2.40 2.51 2.73 2.77 2.92 3.42 3.30 3.25
0.07 0.10 0.29 0.25 0.12 0.14 0.27 0.79 0.88 0.87 0.90 0.98 1.21 1.53 1.89 2.37 2.47 2.72 3.20 3.75 4.26 4.64 5.07 5.27 4.87 4.76 4.76 4.40 3.78 3.20 2.86 2.68 2.69 2.66 2.45 2.25 2.46 2.61 2.85 2.62 2.26 2.33 2.55 2.74 2.75 2.78 3.18 3.34 3.36
0.11 0.15 0.26 0.25 0.16 0.16 0.27 0.69 0.70 0.61 0.95 1.34 1.59 1.75 1.90 2.06 2.22 2.41 2.80 3.52 4.34 4.94 5.65 6.05 6.23 5.74 5.33 4.74 4.27 3.74 3.42 3.21 2.94 2.65 2.37 2.07 1.87 1.80 2.09 2.08 2.03 2.03 2.29 2.35 2.07 2.34 2.69 2.93 3.05
0.09 0.15 0.21 0.25 0.21 0.21 0.34 0.60 0.71 0.63 0.92 1.29 1.35 1.62 1.72 1.74 1.94 2.33 2.86 3.39 4.27 5.04 5.75 6.17 6.38 5.84 5.11 4.77 4.73 4.37 3.78 3.36 2.97 2.57 2.31 1.94 1.78 1.58 1.83 1.87 1.72 1.69 1.86 1.94 2.09 2.41 2.51 2.43 2.48
0.07 0.12 0.20 0.21 0.21 0.30 0.47 0.71 0.85 0.83 0.88 1.03 1.15 1.35 1.39 1.43 1.70 2.16 2.81 3.48 4.26 5.38 6.05 6.19 5.90 5.18 4.66 4.25 4.00 3.70 3.43 3.15 2.67 2.24 1.97 1.85 1.77 1.70 1.90 1.74 1.76 1.66 1.68 1.72 1.80 2.05 2.14 1.93 2.09
0.06 0.11 0.20 0.20 0.17 0.20 0.44 0.79 0.91 0.94 1.00 1.00 1.07 1.15 1.09 1.24 1.57 2.17 2.94 3.74 4.40 4.96 5.32 5.41 5.01 4.25 3.75 3.48 3.41 3.12 2.90 2.56 2.35 2.11 2.06 1.76 1.70 1.69 1.59 1.75 1.57 1.51 1.69 1.66 1.72 1.95 1.97 1.74 1.87
0.09 0.11 0.17 0.20 0.18 0.21 0.44 0.95 1.16 1.07 1.05 1.03 0.93 0.92 1.02 1.25 1.78 2.52 3.33 4.07 4.42 4.44 4.21 3.92 3.73 3.33 3.20 3.14 2.95 2.73 2.67 2.37 2.19 1.99 1.90 1.62 1.45 1.43 1.46 1.45 1.36 1.45 1.37 1.53 1.68 1.80 1.97 1.95 1.76
0.10 0.08 0.07 0.09 0.15 0.38 0.53 1.07 1.24 1.22 1.15 1.01 0.98 0.98 1.10 1.38 1.92 2.61 3.14 3.38 3.53 3.45 3.15 2.95 2.88 2.80 2.74 2.64 2.52 2.23 2.10 2.05 1.88 1.78 1.79 1.68 1.47 1.40 1.39 1.33 1.42 1.42 1.30 1.56 1.35 1.50 1.82 1.96 1.77
0.06 0.05 0.05 0.10 0.22 0.42 0.57 0.93 1.28 1.26 1.32 0.91 0.75 0.84 0.94 1.17 1.49 1.69 1.89 2.04 2.16 2.20 2.35 2.42 2.53 2.65 2.55 2.48 2.47 2.37 2.10 2.04 1.99 1.98 2.06 1.92 1.72 1.50 1.27 1.32 1.50 1.56 1.42 1.43 1.44 1.64 1.67 1.71 1.73
0.05 0.07 0.14 0.24 0.42 0.78 0.80 0.96 1.30 1.30 1.18 0.78 0.55 0.56 0.75 0.85 0.92 1.02 1.11 1.23 1.45 1.51 1.71 1.92 2.05 2.20 2.35 2.38 2.23 2.14 2.07 2.10 2.13 2.08 1.91 1.72 1.58 1.48 1.36 1.41 1.64 1.65 1.61 1.56 1.52 1.53 1.60 1.76 1.86
0.06 0.11 0.35 0.69 1.05 1.12 0.69 0.79 1.21 1.15 0.83 0.54 0.44 0.42 0.43 0.57 0.73 0.87 1.00 1.11 1.30 1.25 1.32 1.56 1.63 1.65 1.79 1.84 1.80 1.86 1.98 2.02 1.90 1.79 1.73 1.57 1.33 1.30 1.38 1.43 1.61 1.59 1.61 1.54 1.67 1.70 1.64 1.74 1.81
0.07 0.08 0.22 0.42 0.54 0.72 0.76 1.24 1.46 0.87 0.58 0.44 0.39 0.35 0.34 0.47 0.65 0.75 0.76 0.84 0.96 0.93 1.05 1.21 1.31 1.37 1.43 1.55 1.65 1.61 1.74 1.76 1.67 1.74 1.63 1.49 1.27 1.17 1.19 1.29 1.35 1.40 1.44 1.42 1.76 1.66 1.68 1.77 1.70
0.08 0.06 0.09 0.14 0.23 0.54 0.95 1.31 1.29 0.78 0.59 0.41 0.36 0.39 0.42 0.39 0.53 0.59 0.54 0.55 0.67 0.77 0.91 1.02 1.10 1.23 1.26 1.40 1.47 1.43 1.52 1.60 1.65 1.65 1.54 1.38 1.38 1.24 1.26 1.31 1.47 1.56 1.58 1.61 1.81 1.76 1.73 1.86 1.70
0.08 0.09 0.10 0.14 0.24 0.48 0.85 1.34 1.61 1.17 0.66 0.48 0.46 0.47 0.50 0.42 0.45 0.48 0.48 0.44 0.51 0.66 0.92 1.01 1.02 1.14 1.18 1.28 1.28 1.16 1.32 1.44 1.57 1.52 1.44 1.41 1.43 1.36 1.45 1.48 1.58 1.64 1.60 1.60 1.76 1.76 1.85 1.92 1.82
0.10 0.10 0.12 0.14 0.17 0.28 0.66 1.00 0.90 0.89 0.65 0.62 0.61 0.55 0.53 0.48 0.50 0.47 0.46 0.46 0.43 0.54 0.76 0.83 0.96 1.08 1.13 1.21 1.31 1.35 1.35 1.29 1.40 1.42 1.39 1.43 1.47 1.40 1.45 1.54 1.61 1.59 1.65 1.76 1.86 1.74 1.81 1.92 2.09
0.13 0.13 0.14 0.16 0.15 0.16 0.32 0.55 0.55 0.71 0.67 0.67 0.73 0.67 0.62 0.46 0.41 0.43 0.47 0.51 0.47 0.48 0.58 0.72 0.89 1.04 1.09 1.16 1.28 1.37 1.50 1.46 1.42 1.40 1.43 1.46 1.55 1.60 1.57 1.61 1.64 1.53 1.57 1.77 1.85 1.83 1.87 1.93 1.98